Weather History for Joplin, MO

Change the Weather History Date:

Thursday, July 18, 2013

  Actual Average Record
Temperature  
Mean Temperature 83 °F 80 °F  
Max Temperature 97 °F 91 °F 110 °F (1954)
Min Temperature 69 °F 70 °F 54 °F (2009)
Degree Days  
Heating Degree Days 0 0  
Month to date heating degree days 0 0  
Since 1 June heating degree days 12 5  
Since 1 July heating degree days 0 0  
Cooling Degree Days 18 16  
Month to date cooling degree days 253 267  
Year to date cooling degree days 720 765  
Since 1 June cooling degree days 576 585  
Growing Degree Days 33 (Base 50)    
Moisture  
Dew Point 67 °F    
Average Humidity 62    
Maximum Humidity 90    
Minimum Humidity 34    
Precipitation  
Precipitation 0.00 in 0.12 in 1.95 in (1948)
Month to date precipitation 0.11 2.42  
Year to date precipitation 27.89 26.23  
Sea Level Pressure  
Sea Level Pressure 30.11 in    
Wind  
Wind Speed 2 mph (SW)    
Max Wind Speed 12 mph    
Max Gust Speed 20 mph    
Visibility 10 miles    
Events      
T = Trace of Precipitation, MM = Missing Value Source: NWS Daily Summary

Daily Weather History Graph

Daily Weather History Graph

Search for Another Location

Airport:

Trip Planner

Search our weather history database for the weather conditions in past years. The results will help you decide how hot, cold, wet, or windy it might be!

Date:

Astronomy

Jul. 18, 2013 Rise Set
Actual Time 6:12 AM CDT 8:36 PM CDT
Civil Twilight 5:42 AM CDT 9:05 PM CDT
Nautical Twilight 5:05 AM CDT 9:42 PM CDT
Astronomical Twilight 4:24 AM CDT 10:22 PM CDT
Moon 4:34 PM CDT (7/18) 2:01 AM CDT (7/18)
Length of Visible Light 15h 23m
Length of Day
14h 23m
Waxing Gibbous, 77% of the Moon is Illuminated
Jul 18
Waxing Gibbous
Jul 22
Full
Jul 29
Last Quarter
Aug 6
New
Aug 14
First Quarter

Hourly Weather History & Observations

Time (CDT) Temp. Heat Index Dew Point Humidity Pressure Visibility Wind Dir Wind Speed Gust Speed Precip Events Conditions
12:53 AM 75.9 °F - 68.0 °F 76% 30.20 in 10.0 mi SE 3.5 mph - N/A   Clear
1:53 AM 73.9 °F - 69.1 °F 85% 30.19 in 10.0 mi Calm Calm - N/A   Clear
2:53 AM 73.0 °F - 69.1 °F 87% 30.18 in 10.0 mi Calm Calm - N/A   Clear
3:53 AM 71.1 °F - 68.0 °F 90% 30.17 in 10.0 mi SSE 3.5 mph - N/A   Clear
4:53 AM 71.1 °F - 66.9 °F 87% 30.17 in 10.0 mi Calm Calm - N/A   Clear
5:53 AM 70.0 °F - 66.9 °F 90% 30.17 in 10.0 mi Calm Calm - N/A   Clear
6:53 AM 71.1 °F - 68.0 °F 90% 30.18 in 10.0 mi Calm Calm - N/A   Clear
7:53 AM 78.1 °F - 69.1 °F 74% 30.18 in 10.0 mi Calm Calm - N/A   Clear
8:53 AM 82.9 °F 85.8 °F 68.0 °F 60% 30.19 in 10.0 mi Variable 3.5 mph - N/A   Clear
9:53 AM 86.0 °F 88.8 °F 66.9 °F 53% 30.17 in 10.0 mi Calm Calm - N/A   Clear
10:53 AM 91.0 °F 94.3 °F 66.9 °F 45% 30.17 in 10.0 mi Variable 4.6 mph - N/A   Clear
11:53 AM 91.0 °F 93.0 °F 64.9 °F 42% 30.15 in 10.0 mi Calm Calm - N/A   Scattered Clouds
12:53 PM 93.9 °F 95.6 °F 64.0 °F 37% 30.14 in 10.0 mi Calm Calm - N/A   Scattered Clouds
1:53 PM 93.0 °F 95.0 °F 64.9 °F 39% 30.11 in 10.0 mi Variable 3.5 mph - N/A   Scattered Clouds
2:53 PM 96.1 °F 98.3 °F 64.0 °F 35% 30.08 in 10.0 mi West 5.8 mph - N/A   Clear
3:53 PM 96.1 °F 98.3 °F 64.0 °F 35% 30.05 in 10.0 mi Variable 5.8 mph - N/A   Partly Cloudy
4:53 PM 93.0 °F 93.8 °F 62.1 °F 36% 30.03 in 10.0 mi SW 5.8 mph - N/A   Clear
5:53 PM 95.0 °F 95.6 °F 62.1 °F 33% 30.01 in 10.0 mi SW 5.8 mph - N/A   Clear
6:53 PM 93.0 °F 94.6 °F 64.0 °F 38% 30.01 in 10.0 mi WSW 6.9 mph - N/A   Partly Cloudy
7:53 PM 89.1 °F 92.1 °F 66.9 °F 48% 30.01 in 10.0 mi WNW 3.5 mph - N/A   Clear
8:53 PM 81.0 °F 83.3 °F 66.9 °F 62% 30.02 in 10.0 mi Calm Calm - N/A   Clear
9:53 PM 79.0 °F - 68.0 °F 69% 30.03 in 10.0 mi Calm Calm - N/A   Clear
10:53 PM 75.9 °F - 69.1 °F 79% 30.02 in 10.0 mi Calm Calm - N/A   Clear
11:53 PM 75.9 °F - 69.1 °F 79% 30.01 in 10.0 mi Calm Calm - N/A   Clear